• In Uzbekistan
  • List of Countries
  • For 7 days
  • Water Temperature
  • Satellite Maps
  • Weather Map
  • Weather Widgets
  • user-avatar
    Login

    Hourly Weather Swansea

    Today, 18 December, Monday

    Time Temperature Precipitation Wind Pressure Humidity
    00:00 +8°C° 0 mm 3 mps 766 mmHg 90%
    01:00 +7°C° 0 mm 3 mps 766 mmHg 89%
    02:00 +7°C° 0 mm 3 mps 767 mmHg 89%
    03:00 +5°C° 0 mm 3 mps 767 mmHg 89%
    04:00 +5°C° 0 mm 3 mps 768 mmHg 89%
    05:00 +5°C° 0 mm 3 mps 768 mmHg 89%
    06:00 +6°C° 0 mm 2 mps 768 mmHg 88%
    07:00 +5°C° 0 mm 2 mps 769 mmHg 88%
    08:00 +5°C° 0 mm 2 mps 769 mmHg 88%
    09:00 +5°C° 0 mm 2 mps 770 mmHg 88%
    10:00 +7°C° 0 mm 1 mps 770 mmHg 84%
    11:00 +9°C° 0 mm 1 mps 771 mmHg 81%
    12:00 +9°C° 0 mm 0 mps 771 mmHg 77%
    13:00 +8°C° 0 mm 0 mps 771 mmHg 79%
    14:00 +8°C° 0 mm 0 mps 771 mmHg 81%
    15:00 +9°C° 0 mm 1 mps 771 mmHg 83%
    16:00 +8°C° 0 mm 1 mps 772 mmHg 85%
    17:00 +7°C° 0 mm 1 mps 772 mmHg 86%
    18:00 +6°C° 0 mm 1 mps 772 mmHg 88%
    19:00 +6°C° 0 mm 1 mps 772 mmHg 88%
    20:00 +6°C° 0 mm 1 mps 773 mmHg 88%
    21:00 +6°C° 0 mm 1 mps 773 mmHg 88%
    22:00 +6°C° 0 mm 1 mps 773 mmHg 88%
    23:00 +5°C° 0 mm 2 mps 773 mmHg 88%

    Tomorrow, 19 December, Tuesday

    Time Temperature Precipitation Wind Pressure Humidity
    00:00 +5°C° 0 mm 2 mps 773 mmHg 88%
    01:00 +5°C° 0 mm 2 mps 774 mmHg 89%
    02:00 +5°C° 0 mm 2 mps 774 mmHg 90%
    03:00 +4°C° 0 mm 3 mps 774 mmHg 90%
    04:00 +4°C° 0 mm 3 mps 774 mmHg 91%
    05:00 +4°C° 0 mm 3 mps 774 mmHg 91%
    06:00 +4°C° 0 mm 3 mps 774 mmHg 92%
    07:00 +5°C° 0 mm 3 mps 774 mmHg 92%
    08:00 +5°C° 0 mm 3 mps 775 mmHg 92%
    09:00 +5°C° 0 mm 3 mps 775 mmHg 92%
    10:00 +6°C° 0 mm 4 mps 775 mmHg 90%
    11:00 +7°C° 0 mm 4 mps 775 mmHg 88%
    12:00 +10°C° 0 mm 4 mps 775 mmHg 86%
    13:00 +8°C° 0 mm 4 mps 775 mmHg 87%
    14:00 +8°C° 0 mm 4 mps 775 mmHg 88%
    15:00 +8°C° 0 mm 4 mps 774 mmHg 89%
    16:00 +8°C° 0 mm 4 mps 774 mmHg 91%
    17:00 +7°C° 0 mm 4 mps 775 mmHg 92%
    18:00 +7°C° 0 mm 4 mps 775 mmHg 93%
    19:00 +7°C° 0 mm 4 mps 775 mmHg 94%
    20:00 +7°C° 0 mm 4 mps 775 mmHg 95%
    21:00 +8°C° 0 mm 4 mps 775 mmHg 95%
    22:00 +8°C° 0 mm 5 mps 775 mmHg 95%
    23:00 +8°C° 0 mm 5 mps 775 mmHg 96%

    Day after tomorrow, 20 December, Wednesday

    Time Temperature Precipitation Wind Pressure Humidity
    00:00 +8°C° 0 mm 5 mps 775 mmHg 96%
    01:00 +9°C° 0 mm 5 mps 775 mmHg 96%
    02:00 +9°C° 0 mm 5 mps 774 mmHg 96%
    03:00 +9°C° 0 mm 5 mps 774 mmHg 97%
    04:00 +9°C° 0.1 mm 5 mps 774 mmHg 97%
    05:00 +9°C° 0.1 mm 5 mps 774 mmHg 97%
    06:00 +10°C° 0.1 mm 5 mps 774 mmHg 97%
    07:00 +10°C° 0 mm 5 mps 774 mmHg 97%
    08:00 +10°C° 0 mm 5 mps 774 mmHg 97%
    09:00 +10°C° 0 mm 5 mps 775 mmHg 97%
    10:00 +12°C° 0 mm 5 mps 775 mmHg 96%
    11:00 +12°C° 0 mm 5 mps 775 mmHg 95%
    12:00 +12°C° 0 mm 5 mps 775 mmHg 94%
    13:00 +12°C° 0 mm 5 mps 774 mmHg 94%
    14:00 +12°C° 0 mm 5 mps 774 mmHg 93%
    15:00 +11°C° 0 mm 6 mps 774 mmHg 93%
    16:00 +12°C° 0 mm 5 mps 774 mmHg 94%
    17:00 +10°C° 0 mm 5 mps 774 mmHg 95%
    18:00 +10°C° 0 mm 5 mps 774 mmHg 96%
    19:00 +10°C° 0 mm 5 mps 775 mmHg 96%
    20:00 +10°C° 0 mm 5 mps 775 mmHg 95%
    21:00 +10°C° 0 mm 5 mps 775 mmHg 95%
    22:00 +10°C° 0 mm 5 mps 775 mmHg 95%
    23:00 +10°C° 0 mm 5 mps 775 mmHg 95%

    21 December, Thursday

    Time Temperature Precipitation Wind Pressure Humidity
    00:00 +10°C° 0 mm 5 mps 775 mmHg 95%
    01:00 +10°C° 0 mm 5 mps 775 mmHg 95%
    02:00 +10°C° 0 mm 5 mps 775 mmHg 95%
    03:00 +10°C° 0 mm 5 mps 775 mmHg 96%
    04:00 +10°C° 0 mm 5 mps 775 mmHg 96%
    05:00 +10°C° 0 mm 5 mps 775 mmHg 96%
    06:00 +10°C° 0 mm 5 mps 775 mmHg 96%
    07:00 +10°C° 0 mm 5 mps 775 mmHg 96%
    08:00 +10°C° 0 mm 5 mps 775 mmHg 96%
    09:00 +12°C° 0 mm 5 mps 775 mmHg 96%
    10:00 +11°C° 0 mm 6 mps 776 mmHg 95%
    11:00 +11°C° 0 mm 6 mps 776 mmHg 95%
    12:00 +11°C° 0 mm 6 mps 776 mmHg 94%
    13:00 +12°C° 0 mm 5 mps 776 mmHg 94%
    14:00 +12°C° 0 mm 5 mps 776 mmHg 94%
    15:00 +12°C° 0 mm 5 mps 776 mmHg 95%
    16:00 +12°C° 0 mm 5 mps 776 mmHg 95%
    17:00 +10°C° 0 mm 5 mps 776 mmHg 95%
    18:00 +11°C° 0 mm 4 mps 776 mmHg 96%
    19:00 +11°C° 0 mm 4 mps 776 mmHg 96%
    20:00 +11°C° 0 mm 4 mps 777 mmHg 95%
    21:00 +11°C° 0 mm 4 mps 777 mmHg 95%
    22:00 +11°C° 0 mm 4 mps 777 mmHg 95%
    23:00 +10°C° 0 mm 4 mps 777 mmHg 95%

    22 December, Friday

    Time Temperature Precipitation Wind Pressure Humidity
    00:00 +10°C° 0 mm 4 mps 777 mmHg 94%
    01:00 +10°C° 0 mm 3 mps 776 mmHg 94%
    02:00 +10°C° 0 mm 3 mps 776 mmHg 94%
    03:00 +10°C° 0 mm 3 mps 776 mmHg 94%
    04:00 +10°C° 0 mm 3 mps 776 mmHg 94%
    05:00 +9°C° 0 mm 3 mps 776 mmHg 93%
    06:00 +9°C° 0 mm 3 mps 776 mmHg 93%
    07:00 +9°C° 0 mm 2 mps 776 mmHg 93%
    08:00 +10°C° 0 mm 2 mps 776 mmHg 92%
    09:00 +10°C° 0 mm 2 mps 776 mmHg 92%
    10:00 +10°C° 0 mm 2 mps 776 mmHg 90%
    11:00 +12°C° 0 mm 2 mps 776 mmHg 88%
    12:00 +13°C° 0 mm 2 mps 776 mmHg 86%
    13:00 +13°C° 0 mm 2 mps 776 mmHg 88%
    14:00 +12°C° 0 mm 3 mps 776 mmHg 91%
    15:00 +11°C° 0 mm 3 mps 775 mmHg 93%
    16:00 +12°C° 0 mm 2 mps 776 mmHg 94%
    17:00 +12°C° 0 mm 2 mps 776 mmHg 96%
    18:00 +10°C° 0 mm 2 mps 776 mmHg 97%
    19:00 +10°C° 0 mm 2 mps 776 mmHg 97%
    20:00 +10°C° 0 mm 2 mps 776 mmHg 97%
    21:00 +11°C° 0 mm 1 mps 776 mmHg 97%
    22:00 +11°C° 0 mm 1 mps 776 mmHg 97%
    23:00 +10°C° 0 mm 2 mps 776 mmHg 97%

    23 December, Saturday

    Time Temperature Precipitation Wind Pressure Humidity
    00:00 +10°C° 0 mm 2 mps 776 mmHg 97%
    01:00 +10°C° 0 mm 2 mps 776 mmHg 97%
    02:00 +10°C° 0 mm 2 mps 776 mmHg 97%
    03:00 +10°C° 0 mm 2 mps 776 mmHg 97%
    04:00 +10°C° 0 mm 2 mps 776 mmHg 97%
    05:00 +10°C° 0 mm 2 mps 776 mmHg 97%
    06:00 +9°C° 0 mm 2 mps 776 mmHg 97%
    07:00 +10°C° 0 mm 2 mps 776 mmHg 97%
    08:00 +10°C° 0 mm 2 mps 776 mmHg 97%
    09:00 +10°C° 0 mm 2 mps 776 mmHg 97%
    10:00 +10°C° 0 mm 2 mps 776 mmHg 95%
    11:00 +11°C° 0 mm 3 mps 775 mmHg 93%
    12:00 +12°C° 0 mm 3 mps 775 mmHg 91%
    13:00 +12°C° 0 mm 3 mps 775 mmHg 91%
    14:00 +11°C° 0 mm 3 mps 774 mmHg 90%
    15:00 +11°C° 0 mm 3 mps 774 mmHg 90%
    16:00 +10°C° 0 mm 3 mps 774 mmHg 92%
    17:00 +10°C° 0 mm 3 mps 773 mmHg 94%
    18:00 +9°C° 0 mm 3 mps 773 mmHg 95%
    19:00 +8°C° 0 mm 4 mps 773 mmHg 95%
    20:00 +7°C° 0 mm 4 mps 773 mmHg 95%
    21:00 +7°C° 0 mm 4 mps 773 mmHg 95%
    22:00 +8°C° 0 mm 4 mps 772 mmHg 94%
    23:00 +8°C° 0 mm 5 mps 771 mmHg 94%
    Show more

    XHprof extension not loaded